W0DXV Weather Reports


time (UTC)temp
C
wind
direction
speed
KPH
gust
KPH
rain 1hr
cm
rain 24hr
cm
rain mn
cm
humidity
%
barometer
mb
20260906092831 20 228 0.0 0.0 0.00 0.03 0.03 99 1008.0
20260906092326 20 228 1.6 1.6 0.00 0.03 0.03 99 1008.1
20260906091822 20 228 1.6 1.6 0.00 0.03 0.03 99 1008.3
20260906091318 20 228 1.6 1.6 0.00 0.03 0.03 99 1008.0
20260906090814 20 228 0.0 0.0 0.00 0.03 0.03 99 1008.1
20260906090312 20 228 0.0 0.0 0.00 0.03 0.03 99 1007.9
20260906085807 20 228 0.0 0.0 0.00 0.03 0.03 99 1008.0
20260906085307 20 228 0.0 0.0 0.00 0.03 0.03 99 1007.8
20260906084800 20 228 0.0 0.0 0.00 0.03 0.03 99 1007.7
20260906084255 20 228 0.0 0.0 0.00 0.03 0.03 99 1007.9
20260906083749 20 228 0.0 0.0 0.00 0.03 0.03 99 1007.7
20260906083245 20 228 0.0 1.6 0.00 0.03 0.03 99 1008.0
20260906082739 21 228 0.0 0.0 0.13 0.03 0.03 99 1007.8
20260906082235 21 227 1.6 1.6 0.13 0.03 0.03 99 1007.8
20260906081731 21 236 0.0 0.0 0.00 0.00 0.00 99 1007.9
20260906081225 20 238 0.0 0.0 0.00 0.00 0.00 99 1007.7
20260906080722 20 238 0.0 0.0 0.00 0.00 0.00 99 1007.7
20260906080218 21 239 0.0 0.0 0.00 0.00 0.00 99 1007.4
20260906075712 21 238 0.0 0.0 0.00 0.00 0.00 99 1007.1
20260906075207 21 238 0.0 0.0 0.00 0.00 0.00 99 1007.2
20260906074702 21 238 0.0 0.0 0.00 0.00 0.00 99 1007.2
20260906074201 21 238 0.0 1.6 0.00 0.00 0.00 99 1007.2
20260906073656 21 238 0.0 0.0 0.00 0.00 0.00 99 1007.1
20260906073151 21 241 0.0 0.0 0.00 0.00 0.00 99 1007.1
20260906072647 21 240 0.0 0.0 0.00 0.00 0.00 99 1007.2
20260906072142 21 241 0.0 0.0 0.00 0.00 0.00 99 1007.2
20260906071638 21 232 0.0 0.0 0.00 0.00 0.00 99 1007.3
20260906071133 21 241 0.0 0.0 0.00 0.00 0.00 99 1007.3
20260906070629 21 241 0.0 0.0 0.00 0.00 0.00 99 1007.2
20260906070125 21 241 0.0 0.0 0.00 0.00 0.00 99 1007.2
20260906065624 21 241 0.0 0.0 0.00 0.00 0.00 99 1007.7
20260906065120 21 203 1.6 1.6 0.00 0.00 0.00 99 1007.7
20260906064615 21 203 0.0 0.0 0.00 0.00 0.00 99 1007.7
20260906064110 21 203 0.0 1.6 0.00 0.00 0.00 99 1007.8
20260906063605 21 203 0.0 0.0 0.00 0.00 0.00 99 1008.0
20260906063101 21 203 0.0 0.0 0.00 0.00 0.00 99 1008.1
20260906062557 21 203 0.0 0.0 0.00 0.00 0.00 99 1008.1
20260906062055 21 203 0.0 0.0 0.00 0.00 0.00 99 1008.0
20260906061552 21 202 0.0 0.0 0.00 0.00 0.00 99 1008.1
20260906061051 21 203 0.0 0.0 0.00 0.00 0.00 99 1008.0
20260906060548 21 202 0.0 0.0 0.00 0.00 0.00 99 1008.0
20260906060045 21 203 0.0 0.0 0.00 0.00 0.00 99 1008.0
20260906055541 21 203 0.0 0.0 0.00 0.00 0.00 99 1008.1
20260906055035 21 202 0.0 0.0 0.00 0.00 0.00 99 1008.2
20260906054530 21 203 0.0 0.0 0.00 0.00 0.00 99 1008.3
20260906054025 21 203 0.0 0.0 0.00 0.00 0.00 99 1008.1
20260906053521 21 203 0.0 0.0 0.00 0.00 0.00 99 1008.2
20260906053017 21 203 0.0 0.0 0.00 0.00 0.00 99 1008.1
20260906052512 21 202 0.0 0.0 0.00 0.00 0.00 99 1008.3
20260906052009 21 202 0.0 0.0 0.00 0.00 0.00 99 1008.1
20260906051505 21 202 0.0 0.0 0.00 0.00 0.00 99 1008.2
20260906051000 21 202 0.0 0.0 0.00 0.00 0.00 99 1008.3
20260906050500 21 202 0.0 0.0 0.00 0.00 0.00 99 1008.6
20260906045954 21 202 0.0 0.0 0.00 0.03 0.03 99 1008.4
20260906045453 21 202 0.0 0.0 0.00 0.03 0.03 99 1008.3
20260906044949 21 202 0.0 0.0 0.00 0.03 0.03 99 1008.4
20260906044444 22 202 0.0 0.0 0.00 0.03 0.03 99 1008.4
20260906043940 22 202 0.0 0.0 0.00 0.03 0.03 99 1008.3
20260906043435 22 202 0.0 0.0 0.00 0.03 0.03 99 1008.4
20260906042931 21 203 0.0 0.0 0.00 0.03 0.03 99 1008.5
20260906042430 21 203 0.0 0.0 0.00 0.03 0.03 99 1008.5
20260906041925 22 203 0.0 0.0 0.00 0.03 0.03 99 1008.7
20260906041421 22 203 0.0 0.0 0.00 0.03 0.03 99 1008.6
20260906040920 22 203 0.0 0.0 0.00 0.03 0.03 99 1008.7
20260906040416 22 203 0.0 0.0 0.00 0.03 0.03 99 1008.8
20260906035911 21 203 0.0 0.0 0.00 0.03 0.03 99 1008.8
20260906035406 21 203 0.0 0.0 0.00 0.03 0.03 99 1008.6
20260906034902 21 203 0.0 0.0 0.00 0.03 0.03 99 1008.8
20260906034356 21 203 0.0 0.0 0.00 0.03 0.03 99 1008.6
20260906033852 21 203 0.0 0.0 0.00 0.03 0.03 99 1008.5
20260906033351 21 203 0.0 0.0 0.00 0.03 0.03 99 1008.6
20260906032848 21 203 0.0 0.0 0.00 0.03 0.03 99 1008.5
20260906032343 22 203 0.0 0.0 0.00 0.03 0.03 99 1008.7
20260906031838 22 203 0.0 0.0 0.00 0.03 0.03 99 1008.7
20260906031334 21 203 0.0 0.0 0.00 0.03 0.03 99 1008.5
20260906030833 21 203 0.0 0.0 0.00 0.03 0.03 99 1008.6
20260906030329 21 203 0.0 0.0 0.00 0.03 0.03 99 1008.7
20260906025823 21 203 0.0 0.0 0.00 0.03 0.03 99 1008.8
20260906025317 22 203 0.0 0.0 0.00 0.03 0.03 99 1008.6
20260906024816 22 203 0.0 0.0 0.00 0.03 0.03 99 1008.6
20260906024315 22 203 0.0 0.0 0.00 0.03 0.03 99 1008.5
20260906023811 22 203 0.0 0.0 0.00 0.03 0.03 99 1008.3
20260906023307 22 203 0.0 0.0 0.00 0.03 0.03 99 1008.3
20260906022802 22 203 0.0 0.0 0.00 0.03 0.03 98 1008.3
20260906022257 22 203 0.0 0.0 0.00 0.03 0.03 98 1008.3
20260906021753 22 203 0.0 0.0 0.00 0.03 0.03 98 1008.4
20260906021252 22 203 0.0 0.0 0.00 0.03 0.03 98 1008.2
20260906020747 22 203 0.0 0.0 0.00 0.03 0.03 98 1008.5
20260906020247 22 203 0.0 0.0 0.00 0.03 0.03 98 1008.4
20260906015741 22 203 0.0 0.0 0.00 0.03 0.03 98 1008.3
20260906015239 22 203 0.0 1.6 0.00 0.03 0.03 98 1008.4
20260906014734 22 202 0.0 0.0 0.00 0.03 0.03 98 1008.7
20260906014225 22 202 0.0 0.0 0.00 0.03 0.03 98 1008.5
20260906013721 22 202 0.0 0.0 0.00 0.03 0.03 98 1008.3
20260906013221 22 200 1.6 1.6 0.00 0.03 0.03 98 1008.2
20260906012715 22 192 1.6 1.6 0.00 0.03 0.03 98 1008.2
20260906012210 22 196 0.0 0.0 0.00 0.03 0.03 97 1008.2
20260906011706 22 196 0.0 0.0 0.00 0.03 0.03 97 1008.1
20260906011206 22 196 0.0 0.0 0.00 0.03 0.03 97 1008.0
20260906010701 22 196 0.0 1.6 0.00 0.03 0.03 97 1007.7
20260906010158 22 196 0.0 0.0 0.00 0.03 0.03 96 1007.8
20260906005657 22 196 0.0 0.0 0.00 0.03 0.03 96 1007.6
20260906005156 23 196 0.0 0.0 0.00 0.03 0.03 96 1007.8
20260906004655 23 196 0.0 0.0 0.00 0.03 0.03 96 1008.0
20260906004150 23 196 0.0 0.0 0.00 0.03 0.03 96 1007.8
20260906003640 23 196 0.0 1.6 0.00 0.03 0.03 96 1007.8
20260906003136 23 196 0.0 0.0 0.00 0.03 0.03 95 1007.6
20260906002630 23 196 0.0 0.0 0.00 0.03 0.03 95 1007.7
20260906002125 23 196 0.0 0.0 0.00 0.03 0.03 95 1007.6
20260906001621 23 196 0.0 0.0 0.00 0.03 0.03 95 1007.8
20260906001120 23 196 0.0 0.0 0.00 0.03 0.03 95 1007.3
20260906000616 23 196 0.0 0.0 0.00 0.03 0.03 94 1007.3
20260906000112 23 196 0.0 0.0 0.00 0.03 0.03 93 1007.3
20260905235610 24 196 0.0 0.0 0.00 0.03 0.03 93 1007.2
20260905235106 24 196 0.0 0.0 0.00 0.03 0.03 92 1007.2
20260905234601 25 195 0.0 0.0 0.00 0.03 0.03 91 1007.2
20260905234056 25 228 0.0 0.0 0.00 0.03 0.03 91 1007.2
20260905233556 25 220 0.0 0.0 0.00 0.03 0.03 90 1007.1
20260905233051 25 220 0.0 0.0 0.00 0.03 0.03 89 1007.0
20260905232546 25 220 0.0 0.0 0.00 0.03 0.03 89 1007.3
20260905232042 25 229 0.0 0.0 0.00 0.03 0.03 88 1007.3
20260905231537 25 231 0.0 1.6 0.00 0.03 0.03 87 1007.2
20260905231033 26 246 1.6 1.6 0.00 0.03 0.03 85 1007.2
20260905230532 26 253 0.0 0.0 0.00 0.03 0.03 85 1007.1
20260905230031 26 253 0.0 0.0 0.00 0.03 0.03 84 1007.2
20260905225525 26 254 0.0 0.0 0.00 0.03 0.03 83 1007.3
20260905225021 26 249 0.0 0.0 0.00 0.03 0.03 83 1007.1
20260905224515 26 210 0.0 0.0 0.00 0.03 0.03 83 1007.1
20260905224015 26 208 0.0 1.6 0.00 0.03 0.03 81 1007.1
20260905223512 26 253 0.0 0.0 0.00 0.03 0.03 79 1007.1
20260905223007 26 254 0.0 0.0 0.00 0.03 0.03 80 1007.1
20260905222502 26 253 0.0 0.0 0.00 0.03 0.03 81 1007.0
20260905221957 26 291 0.0 1.6 0.00 0.03 0.03 81 1007.0
20260905221454 26 239 0.0 0.0 0.00 0.03 0.03 80 1007.1
20260905220950 26 241 0.0 1.6 0.00 0.03 0.03 80 1006.9
20260905220446 26 243 0.0 1.6 0.00 0.03 0.03 77 1006.9
20260905215944 26 241 0.0 1.6 0.00 0.03 0.03 78 1007.0
20260905215440 26 243 0.0 0.0 0.00 0.03 0.03 77 1007.0
20260905214937 26 243 0.0 0.0 0.00 0.03 0.03 78 1007.1
20260905214431 26 246 0.0 0.0 0.00 0.03 0.03 78 1007.3
20260905213926 26 294 3.2 3.2 0.00 0.03 0.03 78 1007.4
20260905213422 26 241 1.6 1.6 0.00 0.03 0.03 80 1007.4
20260905212917 26 237 0.0 1.6 0.00 0.03 0.03 78 1007.6
20260905212412 26 205 0.0 0.0 0.00 0.03 0.03 80 1007.8
20260905211911 25 262 1.6 1.6 0.00 0.03 0.03 80 1007.9
20260905211407 25 265 1.6 1.6 0.00 0.03 0.03 82 1007.8
20260905210903 25 206 0.0 1.6 0.00 0.03 0.03 83 1007.9
20260905210357 25 201 0.0 1.6 0.00 0.03 0.03 83 1007.9
20260905205856 25 237 1.6 1.6 0.00 0.03 0.03 84 1008.0
20260905205351 25 236 0.0 1.6 0.00 0.03 0.03 84 1008.0
20260905204850 25 237 0.0 0.0 0.00 0.03 0.03 84 1007.7
20260905204347 25 243 1.6 1.6 0.00 0.03 0.03 85 1007.6
20260905203845 25 226 0.0 1.6 0.00 0.03 0.03 85 1007.1
20260905203341 25 225 0.0 0.0 0.00 0.03 0.03 85 1007.4
20260905202837 25 225 0.0 0.0 0.00 0.03 0.03 83 1007.3
20260905202331 25 252 1.6 1.6 0.00 0.03 0.03 82 1007.3
20260905201827 25 161 1.6 1.6 0.00 0.03 0.03 85 1007.4
20260905201322 24 227 0.0 0.0 0.00 0.03 0.03 85 1007.9
20260905200816 24 211 0.0 1.6 0.00 0.03 0.03 86 1007.8
20260905200313 23 243 0.0 1.6 0.00 0.03 0.03 87 1008.4
20260905195810 23 250 0.0 1.6 0.00 0.03 0.03 90 1008.2
20260905195307 23 258 0.0 0.0 0.00 0.03 0.03 90 1008.0
20260905194802 22 209 0.0 1.6 0.00 0.03 0.03 91 1008.1
20260905194300 22 214 1.6 1.6 0.00 0.03 0.03 91 1007.9
20260905193754 22 232 0.0 1.6 0.00 0.03 0.03 90 1008.4
20260905193249 22 251 0.0 0.0 0.00 0.03 0.03 91 1008.3
20260905192739 22 253 0.0 1.6 0.00 0.03 0.03 92 1008.3
20260905192236 22 229 0.0 0.0 0.00 0.03 0.03 91 1008.3
20260905191735 22 256 0.0 0.0 0.00 0.03 0.03 91 1008.4
20260905191233 22 240 0.0 0.0 0.00 0.03 0.03 91 1008.1
20260905190732 22 259 1.6 1.6 0.00 0.03 0.03 91 1007.9
20260905190231 22 241 1.6 1.6 0.00 0.03 0.03 91 1007.8
20260905185730 22 205 1.6 1.6 0.00 0.03 0.03 91 1007.0
20260905185225 22 249 0.0 0.0 0.00 0.03 0.03 92 1007.1
20260905184719 22 226 0.0 1.6 0.00 0.03 0.03 90 1007.6
20260905184218 23 246 0.0 0.0 0.18 0.03 0.03 86 1008.0
20260905183718 24 223 0.0 1.6 0.18 0.03 0.03 80 1007.9
20260905183214 25 322 4.8 8.0 0.00 0.00 0.00 71 1008.2
20260905182712 26 225 4.8 8.0 0.00 0.00 0.00 66 1009.3
20260905182207 26 280 6.4 9.7 0.00 0.00 0.00 65 1009.5
20260905181703 27 177 8.0 9.7 0.00 0.00 0.00 66 1009.5
20260905181201 31 191 9.7 12.9 0.00 0.00 0.00 57 1009.3
20260905180656 35 223 3.2 3.2 0.00 0.00 0.00 57 1008.3
20260905180151 35 160 3.2 3.2 0.00 0.00 0.00 57 1007.9
20260905175650 34 258 1.6 1.6 0.00 0.00 0.00 59 1008.2
20260905175146 35 96 3.2 3.2 0.00 0.00 0.00 61 1008.3
20260905174641 36 241 0.0 0.0 0.00 0.00 0.00 56 1008.1
20260905174137 36 229 0.0 1.6 0.00 0.00 0.00 54 1008.1
20260905173633 35 221 1.6 1.6 0.00 0.00 0.00 54 1007.9
20260905173128 35 158 1.6 3.2 0.00 0.00 0.00 57 1008.2
20260905172627 35 294 1.6 1.6 0.00 0.00 0.00 54 1008.5
20260905172122 35 228 1.6 1.6 0.00 0.00 0.00 58 1008.5
20260905171618 35 155 3.2 4.8 0.00 0.00 0.00 53 1008.8
20260905171114 35 277 4.8 4.8 0.00 0.00 0.00 53 1008.9
20260905170610 35 220 3.2 3.2 0.00 0.00 0.00 52 1008.9
20260905170105 36 222 1.6 1.6 0.00 0.00 0.00 54 1008.8
20260905165559 35 248 1.6 1.6 0.00 0.00 0.00 54 1009.0
20260905165054 35 261 1.6 1.6 0.00 0.00 0.00 53 1008.9
20260905164549 34 197 3.2 3.2 0.00 0.00 0.00 55 1009.0
20260905164044 35 249 0.0 0.0 0.00 0.00 0.00 61 1008.8
20260905163540 36 50 1.6 1.6 0.00 0.00 0.00 53 1009.0
20260905163036 35 275 1.6 3.2 0.00 0.00 0.00 55 1009.2
20260905162532 35 228 0.0 1.6 0.00 0.00 0.00 57 1009.2
20260905162027 35 250 0.0 1.6 0.00 0.00 0.00 60 1009.2
20260905161526 35 161 1.6 3.2 0.00 0.00 0.00 57 1009.5
20260905161024 35 228 0.0 1.6 0.00 0.00 0.00 58 1009.5
20260905160517 34 240 0.0 1.6 0.00 0.00 0.00 59 1009.5
20260905160012 34 257 3.2 3.2 0.00 0.00 0.00 60 1009.5
20260905155512 34 282 0.0 1.6 0.00 0.00 0.00 63 1009.6
20260905155010 35 202 1.6 3.2 0.00 0.00 0.00 59 1009.6
20260905154506 33 221 1.6 1.6 0.00 0.00 0.00 59 1009.9
20260905154001 33 229 0.0 1.6 0.00 0.00 0.00 61 1009.7
20260905153457 33 234 1.6 3.2 0.00 0.00 0.00 61 1009.4
20260905152951 33 235 1.6 1.6 0.00 0.00 0.00 64 1009.6
20260905152451 33 236 1.6 1.6 0.00 0.00 0.00 64 1009.8
20260905151946 32 288 1.6 1.6 0.00 0.00 0.00 62 1009.8
20260905151441 32 288 1.6 1.6 0.00 0.00 0.00 65 1009.8
20260905150936 32 302 1.6 1.6 0.00 0.00 0.00 65 1009.8
20260905150437 31 228 1.6 1.6 0.00 0.00 0.00 66 1009.8
20260905145933 31 348 1.6 1.6 0.00 0.00 0.00 68 1009.9
20260905145427 31 220 1.6 1.6 0.00 0.00 0.00 69 1009.9
20260905144927 31 227 1.6 1.6 0.00 0.00 0.00 69 1010.0
20260905144422 30 233 0.0 0.0 0.00 0.00 0.00 72 1010.0
20260905143921 31 238 0.0 1.6 0.00 0.00 0.00 70 1010.0
20260905143415 31 223 0.0 0.0 0.00 0.00 0.00 71 1010.0
20260905142914 30 258 0.0 0.0 0.00 0.00 0.00 70 1010.1
20260905142413 30 249 0.0 1.6 0.00 0.00 0.00 73 1009.8
20260905141910 29 232 1.6 1.6 0.00 0.00 0.00 75 1009.9
20260905141404 29 178 0.0 0.0 0.00 0.00 0.00 75 1009.9
20260905140900 29 186 0.0 0.0 0.00 0.00 0.00 75 1009.7
20260905140356 28 186 0.0 1.6 0.00 0.00 0.00 79 1010.0
20260905135854 28 185 0.0 1.6 0.00 0.00 0.00 81 1010.0
20260905135350 27 188 0.0 0.0 0.00 0.00 0.00 80 1009.9
20260905134846 27 174 0.0 0.0 0.00 0.00 0.00 83 1009.9
20260905134344 27 174 0.0 0.0 0.00 0.00 0.00 83 1010.1
20260905133839 27 174 0.0 0.0 0.00 0.00 0.00 82 1010.2
20260905133334 26 174 0.0 0.0 0.00 0.00 0.00 83 1010.2
20260905132833 26 174 0.0 0.0 0.00 0.00 0.00 85 1010.1
20260905132329 26 174 0.0 0.0 0.00 0.00 0.00 86 1010.1
20260905131829 26 174 0.0 0.0 0.00 0.00 0.00 86 1010.0
20260905131324 25 174 0.0 0.0 0.00 0.00 0.00 86 1010.1
20260905130820 25 174 0.0 0.0 0.00 0.00 0.00 87 1010.1
20260905130318 26 174 0.0 0.0 0.00 0.00 0.00 87 1010.5
20260905125814 26 174 0.0 0.0 0.00 0.00 0.00 86 1010.3
20260905125309 25 174 0.0 0.0 0.00 0.00 0.00 88 1010.1
20260905124805 26 174 0.0 0.0 0.00 0.00 0.00 87 1010.2
20260905124301 26 174 0.0 0.0 0.00 0.00 0.00 86 1010.3
20260905123755 25 174 0.0 0.0 0.00 0.00 0.00 88 1010.0
20260905123252 25 174 0.0 0.0 0.00 0.00 0.00 89 1010.3
20260905122746 25 174 0.0 0.0 0.00 0.00 0.00 87 1010.2
20260905122240 25 174 0.0 0.0 0.00 0.00 0.00 87 1010.0
20260905121736 25 174 0.0 0.0 0.00 0.00 0.00 88 1010.2
20260905121232 24 173 0.0 0.0 0.00 0.00 0.00 91 1010.1
20260905120731 24 173 0.0 0.0 0.00 0.00 0.00 92 1010.1
20260905120230 23 174 0.0 0.0 0.00 0.00 0.00 96 1010.3
20260905115725 23 173 0.0 0.0 0.00 0.00 0.00 98 1010.0
20260905115219 22 173 0.0 0.0 0.00 0.00 0.00 99 1010.1
20260905114714 22 173 0.0 0.0 0.00 0.00 0.00 99 1010.1
20260905114212 22 173 0.0 0.0 0.00 0.00 0.00 99 1010.0
20260905113706 21 173 0.0 0.0 0.00 0.00 0.00 99 1009.9
20260905113202 21 178 0.0 0.0 0.00 0.00 0.00 99 1009.9
20260905112702 21 178 0.0 0.0 0.00 0.00 0.00 99 1009.6
20260905112158 21 178 0.0 0.0 0.00 0.00 0.00 99 1009.6
20260905111658 21 178 0.0 0.0 0.00 0.00 0.00 99 1009.5
20260905111157 21 178 0.0 0.0 0.00 0.00 0.00 99 1009.5
20260905110656 21 178 0.0 0.0 0.00 0.00 0.00 99 1009.5
20260905110152 21 178 0.0 0.0 0.00 0.00 0.00 99 1009.5
20260905105647 21 178 0.0 0.0 0.00 0.00 0.00 99 1009.2
20260905105146 21 178 0.0 0.0 0.00 0.00 0.00 99 1009.3
20260905104641 21 178 0.0 0.0 0.00 0.00 0.00 99 1009.4
20260905104137 21 178 0.0 0.0 0.00 0.00 0.00 99 1009.4
20260905103632 21 178 0.0 0.0 0.00 0.00 0.00 99 1009.3
20260905103128 21 178 1.6 1.6 0.00 0.00 0.00 99 1009.1
20260905102623 21 178 0.0 0.0 0.00 0.00 0.00 99 1009.3
20260905102120 21 178 0.0 0.0 0.00 0.00 0.00 99 1009.4
20260905101618 21 177 0.0 0.0 0.00 0.00 0.00 99 1009.1
20260905101116 21 177 0.0 0.0 0.00 0.00 0.00 99 1009.1
20260905100613 21 177 0.0 0.0 0.00 0.00 0.00 99 1009.0
20260905100108 21 177 0.0 0.0 0.00 0.00 0.00 99 1008.8
20260905095601 21 177 0.0 0.0 0.00 0.00 0.00 99 1009.0
20260905095057 21 177 0.0 0.0 0.00 0.00 0.00 99 1009.1
20260905094551 22 177 0.0 0.0 0.00 0.00 0.00 99 1008.8
20260905094050 22 177 0.0 0.0 0.00 0.00 0.00 99 1008.8
20260905093545 22 177 0.0 0.0 0.00 0.00 0.00 99 1008.9